St. George, UT

3:52 PM MDT on April 23, 2018 (GMT -0600)
Saint George Municipal

Weather History for KSGU - August, 2014

Change the Weather History Date:

Wednesday, August 13, 2014

  Actual Average Record
Temperature  
Mean Temperature 79 °F -  
Max Temperature 89 °F 99 °F 110 °F (1933)
Min Temperature 69 °F 68 °F 54 °F (1932)
Cooling Degree Days 14    
Growing Degree Days 29 (Base 50)    
Moisture  
Dew Point 58 °F    
Average Humidity 47    
Maximum Humidity 78    
Minimum Humidity 33    
Precipitation  
Precipitation 0.00 in - - ()
Sea Level Pressure  
Sea Level Pressure 30.05 in    
Wind  
Wind Speed 6 mph (East)    
Max Wind Speed 17 mph    
Max Gust Speed 17 mph    
Visibility 10 miles    
Events      
Averages and records for this station are not official NWS values.
T = Trace of Precipitation, MM = Missing Value Source: NWS Daily Summary

Daily Weather History Graph

Daily Weather History Graph

Search for Another Location

Airport or City:

Astronomy

Aug. 13, 2014 Rise Set
Actual Time 6:49 AM MDT 8:27 PM MDT
Civil Twilight 6:21 AM MDT 8:55 PM MDT
Nautical Twilight 5:47 AM MDT 9:29 PM MDT
Astronomical Twilight 5:12 AM MDT 10:04 PM MDT
Moon 10:22 PM MDT (8/13) 10:15 AM MDT (8/13)
Length of Visible Light 14h 34m
Length of Day
13h 38m
Waning Gibbous, 87% of the Moon is Illuminated
Aug 13
Waning Gibbous
Aug 17
Last Quarter
Aug 25
New
Sep 2
First Quarter
Sep 8
Full

Hourly Weather History & Observations

Time (MDT) Temp. Heat Index Dew Point Humidity Pressure Visibility Wind Dir Wind Speed Gust Speed Precip Events Conditions
12:15 AM 78.8 °F - 57.2 °F 47% 30.05 in 10.0 mi NNE 4.6 mph - N/A   Clear
12:35 AM 78.8 °F - 57.2 °F 47% 30.04 in 10.0 mi Calm Calm - N/A   Clear
12:55 AM 77.0 °F - 57.2 °F 50% 30.04 in 10.0 mi Calm Calm - N/A   Clear
1:15 AM 77.0 °F - 57.2 °F 50% 30.04 in 10.0 mi Calm Calm - N/A   Clear
1:35 AM 75.2 °F - 57.2 °F 53% 30.04 in 10.0 mi SE 4.6 mph - N/A   Clear
1:55 AM 75.2 °F - 57.2 °F 53% 30.04 in 10.0 mi ESE 6.9 mph - N/A   Mostly Cloudy
2:15 AM 77.0 °F - 57.2 °F 50% 30.04 in 10.0 mi South 4.6 mph - N/A   Scattered Clouds
2:35 AM 77.0 °F - 57.2 °F 50% 30.04 in 10.0 mi SSE 4.6 mph - N/A   Mostly Cloudy
2:55 AM 75.2 °F - 57.2 °F 53% 30.04 in 10.0 mi East 4.6 mph - N/A   Scattered Clouds
3:15 AM 75.2 °F - 57.2 °F 53% 30.05 in 10.0 mi Calm Calm - N/A   Mostly Cloudy
3:35 AM 77.0 °F - 55.4 °F 47% 30.04 in 10.0 mi Calm Calm - N/A   Overcast
3:55 AM 77.0 °F - 55.4 °F 47% 30.04 in 10.0 mi East 8.1 mph - N/A   Mostly Cloudy
4:15 AM 77.0 °F - 55.4 °F 47% 30.04 in 10.0 mi ESE 9.2 mph - N/A   Mostly Cloudy
4:35 AM 78.8 °F - 55.4 °F 44% 30.04 in 10.0 mi ESE 12.7 mph - N/A   Overcast
4:55 AM 78.8 °F - 55.4 °F 44% 30.05 in 10.0 mi East 11.5 mph - N/A   Overcast
5:15 AM 77.0 °F - 57.2 °F 50% 30.05 in 10.0 mi East 9.2 mph - N/A   Overcast
5:35 AM 77.0 °F - 57.2 °F 50% 30.05 in 10.0 mi SE 9.2 mph - N/A   Overcast
7:35 AM 75.2 °F - 57.2 °F 53% 30.08 in 10.0 mi ESE 6.9 mph - N/A   Overcast
8:15 AM 75.2 °F - 59.0 °F 57% 30.10 in 10.0 mi East 13.8 mph - N/A   Overcast
8:35 AM 73.4 °F - 59.0 °F 61% 30.11 in 10.0 mi NE 10.4 mph - N/A   Overcast
9:15 AM 69.8 °F - 60.8 °F 73% 30.11 in 10.0 mi NE 9.2 mph - N/A   Overcast
9:35 AM 69.8 °F - 62.6 °F 78% 30.12 in 10.0 mi NE 6.9 mph - N/A   Overcast
9:55 AM 71.6 °F - 62.6 °F 73% 30.12 in 10.0 mi NNE 4.6 mph - N/A   Mostly Cloudy
10:15 AM 73.4 °F - 62.6 °F 69% 30.12 in 10.0 mi NE 9.2 mph - N/A   Mostly Cloudy
10:35 AM 73.4 °F - 62.6 °F 69% 30.11 in 10.0 mi NE 9.2 mph - N/A   Mostly Cloudy
10:55 AM 75.2 °F - 62.6 °F 65% 30.11 in 10.0 mi NE 8.1 mph - N/A   Overcast
11:15 AM 75.2 °F - 62.6 °F 65% 30.11 in 10.0 mi NE 8.1 mph - N/A   Mostly Cloudy
11:35 AM 77.0 °F - 60.8 °F 57% 30.11 in 10.0 mi NE 6.9 mph - N/A   Mostly Cloudy
11:55 AM 78.8 °F - 60.8 °F 54% 30.11 in 10.0 mi ENE 4.6 mph - N/A   Mostly Cloudy
12:15 PM 78.8 °F - 59.0 °F 51% 30.11 in 10.0 mi East 9.2 mph - N/A   Mostly Cloudy
12:35 PM 80.6 °F 81.1 °F 59.0 °F 48% 30.10 in 10.0 mi ESE 11.5 mph - N/A   Partly Cloudy
12:55 PM 80.6 °F 81.1 °F 59.0 °F 48% 30.09 in 10.0 mi ESE 12.7 mph - N/A   Clear
1:15 PM 82.4 °F 82.5 °F 59.0 °F 45% 30.08 in 10.0 mi East 13.8 mph - N/A   Clear
1:35 PM 82.4 °F 82.0 °F 57.2 °F 42% 30.08 in 10.0 mi ENE 9.2 mph 17.3 mph N/A   Clear
1:55 PM 82.4 °F 82.0 °F 57.2 °F 42% 30.07 in 10.0 mi East 10.4 mph - N/A   Clear
2:15 PM 82.4 °F 82.0 °F 57.2 °F 42% 30.06 in 10.0 mi East 9.2 mph - N/A   Clear
2:35 PM 84.2 °F 83.5 °F 57.2 °F 40% 30.05 in 10.0 mi ENE 9.2 mph - N/A   Clear
2:55 PM 84.2 °F 83.5 °F 57.2 °F 40% 30.04 in 10.0 mi East 12.7 mph 16.1 mph N/A   Clear
3:15 PM 84.2 °F 83.5 °F 57.2 °F 40% 30.03 in 6.0 mi ENE 6.9 mph - N/A   Clear
3:35 PM 87.8 °F 86.5 °F 57.2 °F 35% 30.02 in 10.0 mi ESE 5.8 mph - N/A   Clear
3:55 PM 87.8 °F 86.5 °F 57.2 °F 35% 30.02 in 10.0 mi East 8.1 mph 16.1 mph N/A   Clear
4:15 PM 87.8 °F 86.5 °F 57.2 °F 35% 30.01 in 10.0 mi East 9.2 mph - N/A   Clear
4:35 PM 87.8 °F 86.5 °F 57.2 °F 35% 30.00 in 10.0 mi ENE 8.1 mph - N/A   Clear
4:55 PM 89.6 °F 88.1 °F 57.2 °F 33% 29.99 in 10.0 mi Calm Calm - N/A   Clear
5:15 PM 87.8 °F 86.5 °F 57.2 °F 35% 29.99 in 10.0 mi North 9.2 mph - N/A   Clear
5:35 PM 89.6 °F 88.1 °F 57.2 °F 33% 29.98 in 10.0 mi NNE 5.8 mph - N/A   Clear
5:55 PM 89.6 °F 88.1 °F 57.2 °F 33% 29.97 in 10.0 mi East 5.8 mph - N/A   Clear
6:15 PM 89.6 °F 88.1 °F 57.2 °F 33% 29.97 in 10.0 mi North 9.2 mph - N/A   Clear
6:55 PM 89.6 °F 88.1 °F 57.2 °F 33% 29.96 in 10.0 mi North 6.9 mph - N/A   Clear
7:35 PM 89.6 °F 88.1 °F 57.2 °F 33% 29.96 in 10.0 mi NE 4.6 mph - N/A   Clear
7:55 PM 89.6 °F 88.1 °F 57.2 °F 33% 29.96 in 10.0 mi NNE 6.9 mph - N/A   Clear
10:15 PM 82.4 °F 82.0 °F 57.2 °F 42% 30.00 in 10.0 mi ESE 16.1 mph - N/A   Mostly Cloudy
10:35 PM 82.4 °F 81.7 °F 55.4 °F 39% 30.00 in 10.0 mi ESE 13.8 mph - N/A   Mostly Cloudy
10:55 PM 80.6 °F 80.5 °F 55.4 °F 42% 30.00 in 10.0 mi ESE 13.8 mph - N/A   Mostly Cloudy
11:15 PM 80.6 °F 80.5 °F 55.4 °F 42% 30.00 in 10.0 mi ESE 17.3 mph - N/A   Mostly Cloudy
11:35 PM 80.6 °F 80.5 °F 55.4 °F 42% 30.00 in 10.0 mi ESE 16.1 mph - N/A   Scattered Clouds
11:55 PM 80.6 °F 80.5 °F 55.4 °F 42% 30.00 in 10.0 mi East 10.4 mph - N/A   Partly Cloudy